[ hide orbit diagram ]
For accurate long-term ephemerides, please instead use our Horizons system.This orbit viewer was implemented using two-body methods, and hence should not be used for determining accurate long-term trajectories (over several years or decades) or planetary encounter circumstances.
Orbital Elements at Epoch 2459000.5 (2020-May-31.0) TDB
Reference: JPL 14 (heliocentric ecliptic J2000)
Element | Value | Uncertainty (1-sigma) | Units |
e | .04373947226705176 | 7.503e-08 | |
a | 2.661294569365445 | 2.6869e-08 | au |
q | 2.54489094935423 | 1.9556e-07 | au |
i | 13.779876295 | 7.6324e-06 | deg |
node | 214.1735929494838 | 2.3412e-05 | deg |
peri | 4.624775110431988 | 7.0625e-05 | deg |
M | 190.3952129685592 | 6.8658e-05 | deg |
tp | 2459747.590912265938 (2022-Jun-17.09091227) | 0.00030548 | TDB |
period | 1585.761422912433 4.34 | 2.4015e-05 6.575e-08 | d yr |
n | .227020278585677 | 3.438e-09 | deg/d |
Q | 2.77769818937666 | 2.8044e-08 | au |
|
| | Orbit Determination Parameters
Additional Information
|
[ show covariance matrix ]
Physical Parameter Table
Parameter |
Symbol |
Value |
Units |
Sigma |
Reference |
Notes |
absolute magnitude |
H |
16.1 |
|
n/a |
MPO494860 |
|
|
357677 (2005 LS1) Discovered 2005-Jun-01 by Mt. Lemmon Survey at Mount Lemmon |
Reference: 20130327/Numbers.arc | Last Updated: 2013-03-29 |
|
|